FW4251 Weather Reports


Display with metric or nautical units.
time (UTC)temp
F
wind
direction
speed
MPH
gust
MPH
rain 1hr
in
rain 24hr
in
rain mn
in
humidity
%
barometer
mb
20260509233001 53 153 1.0 3.0 0.00 0.00 0.00 94 1009.2
20260509232501 54 360 1.0 7.0 0.00 0.00 0.00 94 1009.1
20260509232101 54 152 1.0 7.0 0.00 0.00 0.00 94 1009.1
20260509231600 54 187 1.0 8.0 0.00 0.00 0.00 95 1009.2
20260509231059 54 190 3.0 8.0 0.00 0.00 0.00 94 1009.3
20260509230559 54 160 3.0 8.0 0.00 0.00 0.00 94 1009.2
20260509230100 54 202 3.0 7.0 0.00 0.00 0.00 94 1009.4
20260509225559 55 132 2.0 7.0 0.00 0.00 0.00 94 1009.3
20260509225200 55 159 3.0 7.0 0.00 0.00 0.00 95 1009.4
20260509224558 55 360 2.0 8.0 0.00 0.00 0.00 95 1009.4
20260509224059 55 167 2.0 6.0 0.00 0.00 0.00 95 1009.4
20260509223556 55 360 1.0 4.0 0.00 0.00 0.00 95 1009.4
20260509223102 55 137 1.0 6.0 0.00 0.00 0.00 95 1009.5
20260509222557 54 185 3.0 6.0 0.00 0.00 0.00 95 1009.6
20260509222055 54 186 2.0 5.0 0.00 0.00 0.00 95 1009.5
20260509221555 54 148 2.0 9.0 0.00 0.00 0.00 95 1009.4
20260509221055 54 124 3.0 9.0 0.00 0.00 0.00 95 1009.6
20260509220555 54 130 1.0 4.0 0.00 0.00 0.00 95 1009.4
20260509220054 54 163 2.0 5.0 0.00 0.00 0.00 95 1009.5
20260509215554 54 177 2.0 5.0 0.00 0.00 0.00 95 1009.5
20260509215054 54 158 1.0 6.0 0.00 0.00 0.00 95 1009.6
20260509214554 54 178 2.0 8.0 0.00 0.00 0.00 95 1009.5
20260509214053 54 360 3.0 9.0 0.00 0.00 0.00 95 1009.6
20260509213553 54 360 3.0 10.0 0.00 0.00 0.00 95 1009.6
20260509213053 55 360 1.0 10.0 0.00 0.00 0.00 95 1009.6
20260509212552 54 182 3.0 8.0 0.00 0.00 0.00 96 1009.6
20260509212051 54 236 4.0 10.0 0.00 0.00 0.00 95 1009.6
20260509211551 54 182 3.0 7.0 0.00 0.00 0.00 95 1009.6
20260509211050 54 207 3.0 6.0 0.00 0.00 0.00 95 1009.5
20260509210552 54 192 1.0 9.0 0.00 0.00 0.00 95 1009.4
20260509210057 54 157 3.0 9.0 0.00 0.00 0.00 95 1009.6
20260509205548 53 161 4.0 7.0 0.00 0.00 0.00 95 1009.6
20260509205051 53 241 4.0 10.0 0.00 0.00 0.00 95 1009.7
20260509204552 53 194 5.0 10.0 0.00 0.00 0.00 95 1009.9
20260509204045 53 171 2.0 7.0 0.00 0.00 0.00 95 1010.0
20260509203544 53 244 4.0 9.0 0.00 0.00 0.00 95 1010.1
20260509203044 53 217 3.0 9.0 0.00 0.00 0.00 95 1010.1
20260509202543 53 214 3.0 9.0 0.00 0.00 0.00 95 1010.1
20260509202042 53 178 4.0 9.0 0.00 0.00 0.00 95 1010.2
20260509201546 53 192 4.0 7.0 0.00 0.00 0.00 95 1010.3
20260509201041 53 196 3.0 8.0 0.00 0.00 0.00 95 1010.3
20260509200541 53 149 3.0 7.0 0.00 0.00 0.00 95 1010.4
20260509200053 53 193 3.0 8.0 0.00 0.00 0.00 95 1010.6
20260509195540 53 177 3.0 8.0 0.00 0.00 0.00 95 1010.7
20260509195038 53 171 4.0 9.0 0.00 0.00 0.00 95 1010.7
20260509194539 53 189 3.0 7.0 0.00 0.00 0.00 95 1010.8
20260509194038 53 171 3.0 8.0 0.00 0.00 0.00 95 1010.9
20260509193535 53 202 1.0 8.0 0.00 0.00 0.00 95 1010.9
20260509193036 53 200 2.0 7.0 0.00 0.00 0.00 95 1011.0
20260509192534 53 170 2.0 7.0 0.00 0.00 0.00 95 1011.0
20260509192034 52 179 3.0 8.0 0.00 0.00 0.00 95 1011.1
20260509191534 52 194 5.0 9.0 0.00 0.00 0.00 95 1011.3
20260509191032 52 175 3.0 7.0 0.00 0.00 0.00 95 1011.3
20260509190532 52 146 3.0 7.0 0.00 0.00 0.00 95 1011.4
20260509190035 52 194 4.0 7.0 0.00 0.00 0.00 95 1011.5
20260509185533 52 169 3.0 7.0 0.00 0.00 0.00 95 1011.5
20260509185033 52 192 2.0 7.0 0.00 0.00 0.00 95 1011.5
20260509184543 52 191 3.0 7.0 0.00 0.00 0.00 95 1011.4
20260509184030 52 179 2.0 5.0 0.00 0.00 0.00 95 1011.5
20260509183531 52 209 1.0 4.0 0.00 0.00 0.00 94 1011.6
20260509183033 52 205 2.0 5.0 0.00 0.00 0.00 95 1011.7
20260509182530 52 191 3.0 5.0 0.00 0.00 0.00 95 1011.5
20260509182029 52 208 2.0 5.0 0.00 0.00 0.00 94 1011.3
20260509181529 52 214 1.0 4.0 0.00 0.00 0.00 94 1011.4
20260509181029 52 214 1.0 5.0 0.00 0.00 0.00 95 1011.2
20260509180529 52 207 2.0 5.0 0.00 0.00 0.00 94 1011.3
20260509180028 52 333 1.0 3.0 0.00 0.00 0.00 94 1011.3
20260509175529 51 333 0.0 3.0 0.00 0.00 0.00 95 1011.3
20260509175028 51 333 1.0 4.0 0.00 0.00 0.00 94 1011.5
20260509174534 51 333 1.0 4.0 0.00 0.00 0.00 94 1011.4
20260509174027 51 335 0.0 2.0 0.00 0.00 0.00 94 1011.3
20260509173529 51 335 0.0 2.0 0.00 0.00 0.00 94 1011.2
20260509173026 51 335 0.0 2.0 0.00 0.00 0.00 94 1011.2
20260509172526 51 335 0.0 2.0 0.00 0.00 0.00 94 1011.1
20260509172026 51 335 0.0 2.0 0.00 0.00 0.00 94 1011.0
20260509171532 51 335 0.0 2.0 0.00 0.00 0.00 94 1011.2
20260509171025 51 335 0.0 2.0 0.00 0.00 0.00 94 1011.1
20260509170524 51 310 0.0 3.0 0.00 0.00 0.00 94 1011.4
20260509170024 50 310 0.0 3.0 0.00 0.00 0.00 94 1011.4
20260509165525 51 310 0.0 3.0 0.00 0.00 0.00 94 1011.5
20260509165021 50 310 1.0 3.0 0.00 0.00 0.00 94 1011.7
20260509164521 50 310 0.0 2.0 0.00 0.00 0.00 94 1011.6
20260509164019 50 310 0.0 2.0 0.00 0.00 0.00 94 1011.7
20260509163522 50 310 0.0 3.0 0.00 0.00 0.00 94 1011.9
20260509163022 50 310 1.0 3.0 0.00 0.00 0.00 94 1012.0
20260509162517 50 311 1.0 3.0 0.00 0.00 0.00 94 1012.1
20260509162016 50 311 0.0 2.0 0.00 0.00 0.00 94 1012.0
20260509161515 50 311 0.0 2.0 0.00 0.00 0.00 94 1012.1
20260509161014 50 311 0.0 2.0 0.00 0.00 0.00 93 1012.2
20260509160513 50 311 1.0 3.0 0.00 0.00 0.00 93 1012.3
20260509160014 50 311 1.0 3.0 0.00 0.00 0.00 93 1012.3
20260509155510 50 311 1.0 2.0 0.00 0.00 0.00 93 1012.3
20260509155009 50 311 0.0 2.0 0.00 0.00 0.00 93 1012.2
20260509154511 49 311 0.0 2.0 0.00 0.00 0.00 93 1012.3
20260509154009 49 311 1.0 2.0 0.00 0.00 0.00 92 1012.2
20260509153507 49 311 0.0 2.0 0.00 0.00 0.00 93 1012.3
20260509153013 49 311 1.0 3.0 0.00 0.00 0.00 93 1012.3
20260509152506 49 311 0.0 3.0 0.00 0.00 0.00 93 1012.2
20260509152008 49 311 2.0 4.0 0.00 0.00 0.00 93 1012.4
20260509151505 49 269 1.0 3.0 0.00 0.00 0.00 93 1012.3
20260509151005 49 269 1.0 2.0 0.00 0.00 0.00 93 1012.4
20260509150504 49 268 0.0 2.0 0.00 0.00 0.00 93 1012.5
20260509150004 49 268 0.0 2.0 0.00 0.00 0.00 93 1012.5
20260509145504 49 360 0.0 2.0 0.00 0.00 0.00 93 1012.5
20260509145006 49 360 0.0 2.0 0.00 0.00 0.00 93 1012.5
20260509144512 49 360 0.0 3.0 0.00 0.00 0.00 94 1012.4
20260509144005 48 360 1.0 3.0 0.00 0.00 0.00 93 1012.4
20260509143502 48 360 0.0 2.0 0.00 0.00 0.00 93 1012.5
20260509143001 48 360 0.0 3.0 0.00 0.00 0.00 94 1012.5
20260509142559 48 360 0.0 3.0 0.00 0.00 0.00 93 1012.5
20260509142102 48 360 0.0 2.0 0.00 0.00 0.00 94 1012.6
20260509141558 47 360 0.0 2.0 0.00 0.00 0.00 94 1012.5
20260509141058 47 360 1.0 2.0 0.00 0.00 0.00 94 1012.5
20260509140557 47 360 0.0 2.0 0.00 0.00 0.00 94 1012.4
20260509140106 47 360 0.0 4.0 0.00 0.00 0.00 94 1012.7
20260509135558 47 360 0.0 4.0 0.00 0.00 0.00 94 1012.7
20260509135059 47 360 1.0 4.0 0.00 0.00 0.00 94 1012.7
20260509134610 47 360 2.0 4.0 0.00 0.00 0.00 94 1012.7
20260509134055 47 360 1.0 3.0 0.00 0.00 0.00 94 1012.5
20260509133555 47 360 0.0 3.0 0.00 0.00 0.00 94 1012.6
20260509133054 47 360 1.0 3.0 0.00 0.00 0.00 94 1012.7
20260509132554 46 360 0.0 3.0 0.00 0.00 0.00 93 1012.6
20260509132058 47 360 0.0 2.0 0.00 0.00 0.00 94 1012.5
20260509131553 46 360 1.0 2.0 0.00 0.00 0.00 93 1012.5
20260509131053 46 360 0.0 2.0 0.00 0.00 0.00 94 1012.4
20260509130553 46 360 0.0 2.0 0.00 0.00 0.00 94 1012.4
20260509130059 46 360 0.0 2.0 0.00 0.00 0.00 94 1012.4
20260509125552 46 360 0.0 2.0 0.00 0.00 0.00 94 1012.4
20260509125051 46 360 0.0 2.0 0.00 0.00 0.00 94 1012.4
20260509124551 46 360 0.0 1.0 0.00 0.00 0.00 94 1012.4
20260509124050 46 360 0.0 1.0 0.00 0.00 0.00 94 1012.5
20260509123553 45 360 0.0 0.0 0.00 0.00 0.00 94 1012.5
20260509123109 45 360 0.0 0.0 0.00 0.00 0.00 94 1012.5
20260509122549 46 360 0.0 2.0 0.00 0.00 0.00 94 1012.6
20260509122048 46 360 0.0 2.0 0.00 0.00 0.00 94 1012.7
20260509121608 46 360 0.0 2.0 0.00 0.00 0.00 94 1012.8
20260509121049 45 360 0.0 2.0 0.00 0.00 0.00 94 1013.0
20260509120547 45 360 0.0 3.0 0.00 0.00 0.00 94 1013.0
20260509120046 45 360 0.0 3.0 0.00 0.00 0.00 94 1013.1
20260509115546 45 360 1.0 2.0 0.00 0.00 0.00 94 1013.0
20260509115046 45 360 0.0 2.0 0.00 0.00 0.00 94 1013.0
20260509114550 45 360 0.0 2.0 0.00 0.00 0.00 94 1013.0
20260509114047 44 290 0.0 2.0 0.00 0.00 0.00 94 1013.0
20260509113548 44 290 0.0 2.0 0.00 0.00 0.00 94 1012.9
20260509113047 44 290 0.0 2.0 0.00 0.00 0.00 94 1012.9
20260509112545 44 290 0.0 2.0 0.00 0.00 0.00 94 1013.0
20260509112045 44 289 0.0 1.0 0.00 0.00 0.00 94 1013.0
20260509111559 44 290 0.0 1.0 0.00 0.00 0.00 94 1013.0
20260509111043 44 290 0.0 1.0 0.00 0.00 0.00 94 1012.9
20260509110544 44 290 0.0 1.0 0.00 0.00 0.00 94 1012.9
20260509110042 44 290 0.0 1.0 0.00 0.00 0.00 94 1012.9
20260509105545 44 360 0.0 2.0 0.00 0.00 0.00 94 1012.8
20260509105042 44 360 0.0 2.0 0.00 0.00 0.00 94 1012.8
20260509104546 44 360 0.0 2.0 0.00 0.00 0.00 93 1012.9
20260509104041 44 360 0.0 2.0 0.00 0.00 0.00 93 1012.8
20260509103540 44 360 0.0 2.0 0.00 0.00 0.00 93 1012.7
20260509103048 44 360 0.0 1.0 0.00 0.00 0.00 93 1012.7
20260509102539 44 360 0.0 1.0 0.00 0.00 0.00 93 1012.6
20260509102040 44 360 0.0 1.0 0.00 0.00 0.00 93 1012.8
20260509101611 44 360 0.0 2.0 0.00 0.00 0.00 93 1013.0
20260509101038 43 360 0.0 2.0 0.00 0.00 0.00 93 1013.1
20260509100543 43 360 0.0 2.0 0.00 0.00 0.00 93 1013.1
20260509100042 43 360 0.0 2.0 0.00 0.00 0.00 93 1013.1
20260509095539 43 288 0.0 2.0 0.00 0.00 0.00 93 1013.2
20260509095038 43 288 0.0 2.0 0.00 0.00 0.00 93 1013.2
20260509094540 43 360 0.0 2.0 0.00 0.00 0.00 93 1013.2
20260509094036 43 360 0.0 2.0 0.00 0.00 0.00 93 1013.1
20260509093536 43 360 0.0 2.0 0.00 0.00 0.00 93 1013.1
20260509093036 44 288 0.0 1.0 0.00 0.00 0.00 92 1013.0
20260509092535 44 289 0.0 1.0 0.00 0.00 0.00 92 1013.0
20260509092036 43 360 0.0 2.0 0.00 0.00 0.00 92 1013.1
20260509091541 43 360 0.0 2.0 0.00 0.00 0.00 92 1013.0
20260509091035 44 360 0.0 2.0 0.00 0.00 0.00 92 1013.1
20260509090535 44 360 0.0 2.0 0.00 0.00 0.00 92 1013.1
20260509090040 44 360 0.0 2.0 0.00 0.00 0.00 92 1013.2
20260509085534 44 288 0.0 2.0 0.00 0.00 0.00 92 1013.2
20260509085034 43 360 0.0 2.0 0.00 0.00 0.00 92 1013.2
20260509084537 44 289 0.0 2.0 0.00 0.00 0.00 92 1013.2
20260509084035 43 290 0.0 1.0 0.00 0.00 0.00 91 1013.3
20260509083533 43 290 0.0 0.0 0.00 0.00 0.00 91 1013.2
20260509083033 43 290 0.0 0.0 0.00 0.00 0.00 91 1013.1
20260509082532 43 290 0.0 0.0 0.00 0.00 0.00 91 1013.1
20260509082032 43 290 0.0 0.0 0.00 0.00 0.00 91 1013.1
20260509081539 43 290 0.0 0.0 0.00 0.00 0.00 90 1013.1
20260509081033 43 290 0.0 1.0 0.00 0.00 0.00 90 1013.0
20260509080531 43 290 0.0 3.0 0.00 0.00 0.00 90 1013.0
20260509080035 43 290 1.0 3.0 0.00 0.00 0.00 90 1013.1
20260509075532 43 290 0.0 1.0 0.00 0.00 0.00 90 1013.2
20260509075034 43 290 0.0 2.0 0.00 0.00 0.00 89 1013.3
20260509074541 43 290 0.0 2.0 0.00 0.00 0.00 89 1013.2
20260509074029 43 290 0.0 4.0 0.00 0.00 0.00 89 1013.3
20260509073529 43 290 1.0 4.0 0.00 0.00 0.00 88 1013.4
20260509073029 43 290 2.0 4.0 0.00 0.00 0.00 88 1013.4
20260509072529 43 290 2.0 4.0 0.00 0.00 0.00 87 1013.2
20260509072027 43 355 1.0 2.0 0.00 0.00 0.00 87 1013.1
20260509071527 43 355 1.0 2.0 0.00 0.00 0.00 86 1012.9
20260509071027 44 355 0.0 0.0 0.00 0.00 0.00 85 1012.8
20260509070527 44 360 0.0 1.0 0.00 0.00 0.00 84 1012.7
20260509070026 44 360 0.0 2.0 0.00 0.00 0.00 83 1012.6
20260509065525 44 360 0.0 2.0 0.00 0.00 0.00 81 1012.8
20260509065027 44 360 0.0 0.0 0.00 0.00 0.00 81 1012.7
20260509064525 44 355 0.0 0.0 0.00 0.00 0.00 81 1012.7
20260509064027 44 355 0.0 0.0 0.00 0.00 0.00 81 1012.8
20260509063523 44 355 0.0 0.0 0.00 0.00 0.00 81 1012.7
20260509063028 44 355 0.0 0.0 0.00 0.00 0.00 81 1012.8
20260509062525 44 355 0.0 0.0 0.00 0.00 0.00 80 1012.7
20260509062027 44 355 0.0 0.0 0.00 0.00 0.00 80 1012.8
20260509061522 44 355 0.0 0.0 0.00 0.00 0.00 79 1012.9
20260509061032 44 355 0.0 0.0 0.00 0.00 0.00 79 1013.0
20260509060522 44 355 0.0 0.0 0.00 0.00 0.00 80 1013.0
20260509060021 43 355 0.0 0.0 0.00 0.00 0.00 80 1013.0
20260509055520 43 355 0.0 0.0 0.00 0.00 0.00 80 1013.0
20260509055023 43 355 0.0 0.0 0.00 0.00 0.00 81 1013.2
20260509054518 43 360 0.0 0.0 0.00 0.00 0.00 80 1013.3
20260509054017 43 360 0.0 0.0 0.00 0.00 0.00 80 1013.7
20260509053517 43 360 0.0 0.0 0.00 0.00 0.00 80 1013.4
20260509053021 43 360 0.0 0.0 0.00 0.00 0.00 80 1013.3
20260509052516 43 360 0.0 0.0 0.00 0.00 0.00 80 1013.3
20260509052015 43 360 0.0 0.0 0.00 0.00 0.00 80 1013.3
20260509051514 42 360 0.0 0.0 0.00 0.00 0.00 80 1013.3
20260509051017 42 360 0.0 0.0 0.00 0.00 0.00 80 1013.3
20260509050514 42 360 0.0 1.0 0.00 0.00 0.00 80 1013.2
20260509050015 42 360 0.0 1.0 0.00 0.00 0.00 80 1013.3
20260509045518 42 360 0.0 0.0 0.00 0.00 0.00 79 1013.2
20260509045013 42 360 0.0 1.0 0.00 0.00 0.00 79 1013.2
20260509044512 42 360 0.0 1.0 0.00 0.00 0.00 78 1013.2
20260509044019 42 360 0.0 1.0 0.00 0.00 0.00 78 1013.3
20260509043510 42 360 0.0 1.0 0.00 0.00 0.00 77 1013.3
20260509043010 42 360 0.0 0.0 0.00 0.00 0.00 78 1013.4
20260509042512 42 360 0.0 0.0 0.00 0.00 0.00 78 1013.4
20260509042014 42 360 0.0 1.0 0.00 0.00 0.00 78 1013.5
20260509041509 42 360 0.0 1.0 0.00 0.00 0.00 78 1013.3
20260509041007 42 360 0.0 1.0 0.00 0.00 0.00 78 1013.4
20260509040508 42 360 0.0 0.0 0.00 0.00 0.00 77 1013.4
20260509040006 42 360 0.0 0.0 0.00 0.00 0.00 77 1013.3
20260509035506 42 360 0.0 1.0 0.00 0.00 0.00 76 1013.3
20260509035005 42 360 0.0 1.0 0.00 0.00 0.00 76 1013.3
20260509034505 43 360 0.0 0.0 0.00 0.00 0.00 75 1013.4
20260509034006 43 360 0.0 0.0 0.00 0.00 0.00 74 1013.3
20260509033504 43 360 0.0 0.0 0.00 0.00 0.00 74 1013.2
20260509033004 43 360 0.0 0.0 0.00 0.00 0.00 74 1013.1
20260509032504 44 360 0.0 0.0 0.00 0.00 0.00 73 1013.1
20260509032003 44 360 0.0 0.0 0.00 0.00 0.00 72 1013.1
20260509031504 44 360 0.0 0.0 0.00 0.00 0.00 71 1013.1
20260509031004 45 360 0.0 0.0 0.00 0.00 0.00 70 1013.0
20260509030506 45 360 0.0 0.0 0.00 0.00 0.00 69 1012.9
20260509030004 45 360 0.0 0.0 0.00 0.00 0.00 67 1013.1
20260509025503 46 360 0.0 1.0 0.00 0.00 0.00 67 1013.1
20260509025003 45 360 0.0 1.0 0.00 0.00 0.00 66 1013.2
20260509024505 45 360 0.0 0.0 0.00 0.00 0.00 65 1013.2
20260509024003 45 360 0.0 0.0 0.00 0.00 0.00 65 1013.2
20260509023503 45 355 0.0 0.0 0.00 0.00 0.00 64 1013.2
20260509023002 45 360 0.0 0.0 0.00 0.00 0.00 64 1013.2
20260509022503 45 360 0.0 0.0 0.00 0.00 0.00 64 1013.2
20260509022002 45 360 0.0 0.0 0.00 0.00 0.00 64 1013.1
20260509021502 46 360 0.0 0.0 0.00 0.00 0.00 63 1013.1
20260509021001 46 360 0.0 0.0 0.00 0.00 0.00 63 1013.1
20260509020503 47 360 0.0 0.0 0.00 0.00 0.00 62 1013.0
20260509015559 48 360 0.0 1.0 0.00 0.00 0.00 59 1012.8
20260509015059 48 360 0.0 1.0 0.00 0.00 0.00 58 1012.8
20260509014558 48 360 0.0 0.0 0.00 0.00 0.00 57 1012.6
20260509014057 48 360 0.0 1.0 0.00 0.00 0.00 57 1012.6
20260509013557 48 360 0.0 1.0 0.00 0.00 0.00 57 1012.6
20260509013104 49 360 0.0 0.0 0.00 0.00 0.00 55 1012.6
20260509012557 49 360 0.0 0.0 0.00 0.00 0.00 56 1012.6
20260509012058 49 360 0.0 0.0 0.00 0.00 0.00 55 1012.5
20260509011559 48 360 0.0 0.0 0.00 0.00 0.00 54 1012.5
20260509011054 49 360 0.0 0.0 0.00 0.00 0.00 54 1012.4
20260509010554 49 360 0.0 0.0 0.00 0.00 0.00 54 1012.3
20260509010055 49 360 0.0 0.0 0.00 0.00 0.00 53 1012.1
20260509005556 50 360 0.0 0.0 0.00 0.00 0.00 52 1012.0
20260509005054 50 360 0.0 0.0 0.00 0.00 0.00 52 1011.8
20260509004555 50 360 0.0 0.0 0.00 0.00 0.00 52 1011.6
20260509004052 51 360 0.0 0.0 0.00 0.00 0.00 51 1011.5
20260509003553 52 355 0.0 1.0 0.00 0.00 0.00 49 1011.4
20260509003052 52 355 0.0 1.0 0.00 0.00 0.00 48 1011.4
20260509002556 52 355 0.0 1.0 0.00 0.00 0.00 47 1011.5
20260509002053 53 360 0.0 0.0 0.00 0.00 0.00 46 1011.4
20260509001552 54 355 0.0 1.0 0.00 0.00 0.00 45 1011.4
20260509001051 54 355 0.0 2.0 0.00 0.00 0.00 48 1011.4
20260509000555 54 355 0.0 3.0 0.00 0.00 0.00 49 1011.5
20260509000051 54 355 1.0 4.0 0.00 0.00 0.00 45 1011.5
20260508235551 54 355 0.0 4.0 0.00 0.00 0.00 44 1011.5
20260508235054 55 355 0.0 2.0 0.00 0.00 0.00 47 1011.4
20260508234553 55 355 0.0 2.0 0.00 0.00 0.00 45 1011.3
20260508234053 55 355 0.0 3.0 0.00 0.00 0.00 43 1011.3
20260508233550 55 360 0.0 2.0 0.00 0.00 0.00 43 1011.2